KC5DAQ-22 Weather Reports


time (UTC)temp
F
wind
direction
speed
knots
gust
knots
rain 1hr
in
rain 24hr
in
rain mn
in
humidity
%
barometer
mb
20260502170504 72 41 9.6 15.6 0.00 1.25 0.00 54 1018.8
20260502170402 72 55 9.6 15.6 0.00 1.25 0.00 53 1018.8
20260502170302 71 31 9.6 15.6 0.00 1.25 0.00 53 1018.8
20260502170203 71 38 9.6 15.6 0.00 1.25 0.00 54 1018.8
20260502170104 72 350 7.8 15.6 0.00 1.25 0.00 54 1018.7
20260502164302 71 20 7.0 13.0 0.00 1.25 0.00 59 1018.7
20260502164202 71 0 6.1 13.0 0.00 1.25 0.00 60 1018.8
20260502164103 71 47 5.2 13.0 0.00 1.25 0.00 59 1018.8
20260502164002 71 0 6.1 13.9 0.00 1.25 0.00 58 1018.8
20260502163902 71 0 5.2 13.9 0.00 1.25 0.00 59 1018.7
20260502163804 71 338 6.1 13.9 0.00 1.25 0.00 60 1018.9
20260502163703 71 6 7.8 13.9 0.00 1.25 0.00 60 1018.8
20260502163601 71 24 7.0 13.9 0.00 1.25 0.00 60 1018.9
20260502163502 71 16 6.1 13.9 0.00 1.25 0.00 60 1018.9
20260502163402 71 344 7.8 13.9 0.00 1.25 0.00 60 1018.8
20260502163303 71 47 7.0 16.5 0.00 1.25 0.00 62 1018.8
20260502163202 71 11 7.8 16.5 0.00 1.25 0.00 62 1018.8
20260502163104 70 32 7.8 16.5 0.00 1.25 0.00 62 1018.8
20260502163002 70 0 5.2 16.5 0.00 1.25 0.00 62 1018.8
20260502162902 70 42 5.2 16.5 0.00 1.25 0.00 63 1018.8
20260502162803 70 1 6.1 16.5 0.00 1.25 0.00 62 1018.9
20260502162702 70 0 7.0 16.5 0.00 1.25 0.00 63 1018.9
20260502162602 70 0 6.1 16.5 0.00 1.25 0.00 62 1018.8
20260502162503 70 21 8.7 16.5 0.00 1.25 0.00 62 1018.8
20260502162403 70 6 10.4 16.5 0.00 1.25 0.00 61 1018.8
20260502162304 70 39 7.8 13.0 0.00 1.25 0.00 62 1018.8
20260502162202 70 0 7.8 13.9 0.00 1.25 0.00 62 1018.9
20260502162104 70 0 7.8 13.9 0.00 1.25 0.00 63 1018.9
20260502162004 70 16 7.8 13.9 0.00 1.25 0.00 63 1018.8
20260502161902 69 336 6.1 13.9 0.00 1.25 0.00 62 1018.8
20260502161803 69 0 5.2 13.9 0.00 1.25 0.00 62 1018.8
20260502161703 69 314 7.0 13.9 0.00 1.25 0.00 62 1018.9
20260502161602 69 44 7.8 13.9 0.00 1.25 0.00 62 1018.9
20260502161502 69 0 8.7 13.9 0.00 1.25 0.00 62 1018.8
20260502161403 69 3 9.6 13.9 0.00 1.25 0.00 62 1018.8
20260502161302 69 13 9.6 13.9 0.00 1.25 0.00 62 1018.8
20260502161202 69 6 8.7 13.9 0.00 1.25 0.00 64 1018.8
20260502161102 69 27 8.7 13.9 0.00 1.25 0.00 64 1018.8
20260502161004 69 39 7.8 13.9 0.00 1.25 0.00 64 1018.7
20260502160902 69 25 5.2 13.0 0.00 1.25 0.00 64 1018.7
20260502160802 69 0 6.1 13.0 0.00 1.25 0.00 64 1018.6
20260502160704 69 355 7.0 13.0 0.00 1.25 0.00 65 1018.8
20260502160604 69 358 5.2 13.0 0.00 1.25 0.00 66 1018.7
20260502160504 69 17 7.0 13.0 0.00 1.25 0.00 66 1018.7
20260502160403 69 39 7.0 13.0 0.00 1.25 0.00 67 1018.6
20260502160302 69 52 5.2 13.0 0.00 1.25 0.00 67 1018.7
20260502160203 68 0 6.1 13.0 0.00 1.25 0.00 66 1018.6
20260502152341 66 13 8.7 14.8 0.00 1.25 0.00 72 1018.7
20260502152238 66 7 8.7 14.8 0.00 1.25 0.00 72 1018.7
20260502152137 66 32 7.8 14.8 0.00 1.25 0.00 72 1018.7
20260502152030 66 274 5.2 14.8 0.00 1.25 0.00 73 1018.7
20260502151931 66 258 5.2 14.8 0.00 1.25 0.00 72 1018.7
20260502151833 66 252 7.8 14.8 0.00 1.25 0.00 73 1018.6
20260502151732 65 0 8.7 14.8 0.00 1.25 0.00 72 1018.6
20260502151631 65 8 9.6 14.8 0.00 1.25 0.00 71 1018.6
20260502151532 65 23 8.7 14.8 0.00 1.25 0.00 71 1018.6
20260502151431 65 269 8.7 13.9 0.00 1.25 0.00 72 1018.6
20260502151332 65 45 9.6 13.9 0.00 1.25 0.00 73 1018.6
20260502151231 65 27 8.7 13.9 0.00 1.25 0.00 73 1018.6
20260502151132 65 42 7.8 13.9 0.00 1.25 0.00 73 1018.6
20260502151031 65 279 7.0 13.9 0.00 1.25 0.00 73 1018.5
20260502150931 65 283 7.0 13.9 0.00 1.25 0.00 73 1018.5
20260502150828 65 269 7.8 13.9 0.00 1.25 0.00 73 1018.6
20260502150728 65 274 7.8 13.9 0.00 1.25 0.00 73 1018.6
20260502150627 65 278 6.1 13.9 0.00 1.25 0.00 74 1018.7
20260502150528 65 11 7.0 13.9 0.00 1.25 0.00 74 1018.6
20260502150428 65 39 7.8 13.9 0.00 1.25 0.00 74 1018.6
20260502150327 65 24 7.0 13.9 0.00 1.25 0.00 74 1018.6
20260502150228 65 23 6.1 13.9 0.00 1.25 0.00 75 1018.7
20260502150127 65 34 6.1 13.0 0.00 1.25 0.00 75 1018.6
20260502140127 60 10 5.2 10.4 0.00 1.38 0.00 84 1018.2
20260502130725 56 0 5.2 9.6 0.00 1.43 0.00 94 1017.4
20260502130625 56 0 5.2 9.6 0.00 1.43 0.00 94 1017.5
20260502130525 56 299 5.2 8.7 0.00 1.43 0.00 94 1017.5
20260502130426 56 0 5.2 8.7 0.00 1.43 0.00 94 1017.4
20260502130326 55 0 5.2 8.7 0.00 1.43 0.00 94 1017.4
20260502130224 55 286 4.3 8.7 0.00 1.43 0.00 94 1017.4
20260502130126 55 314 3.5 8.7 0.00 1.43 0.00 94 1017.4
20260502123804 54 323 4.3 6.1 0.00 1.43 0.00 95 1017.1
20260502123701 54 321 4.3 6.1 0.00 1.43 0.00 95 1017.1
20260502123602 54 323 3.5 6.1 0.00 1.43 0.00 95 1017.1
20260502123503 54 320 3.5 5.2 0.00 1.43 0.00 95 1017.1
20260502123402 54 310 2.6 5.2 0.00 1.43 0.00 95 1017.0
20260502123303 53 327 2.6 3.5 0.00 1.43 0.00 95 1016.9
20260502123203 53 357 2.6 3.5 0.00 1.43 0.00 95 1017.0
20260502123103 53 357 2.6 3.5 0.00 1.43 0.00 95 1016.9
20260502123003 53 357 2.6 5.2 0.00 1.43 0.00 95 1016.9
20260502122904 53 357 2.6 5.2 0.00 1.43 0.00 95 1016.9
20260502122803 53 314 1.7 5.2 0.00 1.43 0.00 95 1017.0
20260502122703 53 330 1.7 5.2 0.00 1.43 0.00 95 1016.8
20260502122603 53 326 1.7 5.2 0.00 1.43 0.00 95 1016.9
20260502122504 53 324 1.7 5.2 0.00 1.43 0.00 95 1016.8
20260502122403 53 326 2.6 5.2 0.00 1.43 0.00 95 1016.8
20260502122301 53 326 2.6 5.2 0.00 1.43 0.00 95 1016.8
20260502122202 53 331 2.6 5.2 0.00 1.43 0.00 95 1016.8
20260502122102 53 330 2.6 5.2 0.00 1.43 0.00 95 1016.8
20260502122003 53 351 1.7 4.3 0.00 1.43 0.00 95 1016.8
20260502121902 53 351 1.7 4.3 0.00 1.43 0.00 95 1016.7
20260502121804 53 353 2.6 4.3 0.00 1.43 0.00 95 1016.8
20260502121703 53 354 1.7 4.3 0.00 1.43 0.00 95 1016.8
20260502121603 53 312 0.9 3.5 0.00 1.43 0.00 95 1016.8
20260502121502 53 310 1.7 3.5 0.00 1.43 0.00 95 1016.8
20260502121403 53 310 2.6 3.5 0.00 1.43 0.00 95 1016.7
20260502121302 53 323 2.6 3.5 0.00 1.43 0.00 95 1016.8
20260502121201 53 0 1.7 3.5 0.00 1.43 0.00 95 1016.8
20260502121103 53 16 1.7 3.5 0.00 1.43 0.00 95 1016.7
20260502121002 53 20 1.7 4.3 0.00 1.43 0.00 95 1016.7
20260502120903 52 21 1.7 4.3 0.00 1.43 0.00 95 1016.7
20260502120803 52 353 1.7 4.3 0.00 1.43 0.00 95 1016.7
20260502120702 52 354 1.7 4.3 0.00 1.43 0.00 95 1016.7
20260502120602 52 354 1.7 4.3 0.00 1.43 0.00 95 1016.8
20260502120504 52 353 1.7 4.3 0.00 1.43 0.00 95 1016.7
20260502120403 52 353 0.9 4.3 0.00 1.44 0.00 95 1016.7
20260502120302 52 351 1.7 4.3 0.00 1.44 0.00 95 1016.7
20260502120202 52 351 2.6 4.3 0.00 1.44 0.00 95 1016.7
20260502115902 52 345 0.9 3.5 0.00 1.45 0.00 95 1016.6
20260502115803 52 345 1.7 3.5 0.00 1.46 0.00 95 1016.5
20260502115702 52 345 1.7 4.3 0.00 1.46 0.00 95 1016.6
20260502115602 52 345 1.7 4.3 0.00 1.46 0.00 95 1016.6
20260502115503 52 344 1.7 5.2 0.00 1.46 0.00 95 1016.6
20260502115403 52 345 1.7 5.2 0.00 1.46 0.00 95 1016.5
20260502115306 52 353 1.7 5.2 0.00 1.46 0.00 95 1016.6
20260502115202 52 353 1.7 5.2 0.00 1.46 0.00 95 1016.5
20260502115103 52 351 1.7 5.2 0.00 1.46 0.00 95 1016.5
20260502115004 52 341 1.7 5.2 0.00 1.46 0.00 95 1016.5
20260502114901 52 345 2.6 5.2 0.00 1.46 0.00 95 1016.5
20260502114802 52 354 3.5 5.2 0.00 1.46 0.00 95 1016.5
20260502114704 52 351 2.6 5.2 0.00 1.46 0.00 95 1016.4
20260502114602 52 324 2.6 5.2 0.00 1.46 0.00 95 1016.5
20260502114503 52 0 2.6 5.2 0.00 1.46 0.00 95 1016.4
20260502114404 52 7 2.6 5.2 0.00 1.46 0.00 95 1016.4
20260502114302 52 345 2.6 5.2 0.00 1.46 0.00 95 1016.4
20260502114203 52 344 2.6 5.2 0.00 1.46 0.00 94 1016.5
20260502114103 52 347 3.5 5.2 0.00 1.46 0.00 94 1016.5
20260502114003 52 338 3.5 5.2 0.00 1.46 0.00 94 1016.5
20260502113901 52 343 3.5 5.2 0.00 1.46 0.00 95 1016.5
20260502113802 52 350 2.6 5.2 0.00 1.46 0.00 94 1016.5
20260502113703 52 351 2.6 5.2 0.00 1.46 0.00 94 1016.5
20260502113603 52 357 3.5 5.2 0.00 1.46 0.00 94 1016.5
20260502113504 52 327 3.5 5.2 0.00 1.46 0.00 94 1016.4
20260502113402 52 329 2.6 5.2 0.00 1.46 0.00 94 1016.4
20260502113302 52 348 2.6 6.1 0.00 1.46 0.00 94 1016.4
20260502113202 52 348 3.5 6.1 0.00 1.46 0.00 94 1016.3
20260502113101 52 347 3.5 6.1 0.00 1.46 0.00 94 1016.3
20260502113004 52 334 2.6 6.1 0.00 1.46 0.00 94 1016.2
20260502112902 52 350 2.6 6.1 0.00 1.46 0.00 94 1016.3
20260502112802 52 344 2.6 6.1 0.00 1.46 0.00 94 1016.2
20260502112703 52 345 2.6 6.1 0.00 1.46 0.00 94 1016.2
20260502112602 52 351 2.6 6.1 0.00 1.46 0.00 94 1016.2
20260502112502 52 324 3.5 6.1 0.00 1.46 0.00 94 1016.2
20260502112403 52 316 3.5 6.1 0.00 1.47 0.00 94 1016.1
20260502112305 52 337 2.6 4.3 0.00 1.47 0.00 94 1016.2
20260502112202 52 347 2.6 5.2 0.00 1.48 0.00 94 1016.2
20260502112103 52 357 2.6 5.2 0.00 1.48 0.00 94 1016.1
20260502112003 52 357 1.7 5.2 0.00 1.48 0.00 94 1016.2
20260502111903 52 357 1.7 5.2 0.00 1.48 0.00 94 1016.2
20260502111802 52 357 2.6 5.2 0.00 1.48 0.00 94 1016.2
20260502111703 52 0 2.6 5.2 0.00 1.48 0.00 94 1016.2
20260502111603 52 330 3.5 5.2 0.00 1.48 0.00 94 1016.1
20260502111503 52 326 3.5 6.1 0.00 1.48 0.00 94 1016.1
20260502111402 52 337 3.5 6.1 0.00 1.48 0.00 94 1016.1
20260502111304 52 330 3.5 6.1 0.00 1.48 0.00 94 1016.2
20260502111203 52 334 3.5 6.1 0.00 1.48 0.00 94 1016.2
20260502111103 52 355 2.6 6.1 0.00 1.48 0.00 94 1016.2
20260502111004 52 350 2.6 6.1 0.00 1.48 0.00 94 1016.2
20260502110902 52 341 2.6 6.1 0.00 1.48 0.00 94 1016.1
20260502110802 52 357 2.6 6.1 0.00 1.48 0.00 94 1016.2
20260502110703 52 341 4.3 6.1 0.00 1.48 0.00 94 1016.2
20260502110603 52 341 4.3 6.1 0.00 1.48 0.00 94 1016.1
20260502110502 52 338 4.3 6.1 0.00 1.48 0.00 94 1016.2
20260502110403 52 357 3.5 6.1 0.00 1.48 0.00 94 1016.1
20260502110303 52 344 3.5 5.2 0.00 1.48 0.00 94 1016.1
20260502110202 52 334 2.6 5.2 0.00 1.48 0.00 94 1016.1
20260502110103 52 333 3.5 5.2 0.00 1.48 0.00 94 1016.1
20260502110004 52 338 3.5 5.2 0.00 1.49 0.00 94 1016.1
20260502105904 52 338 3.5 5.2 0.00 1.49 0.00 94 1016.1
20260502105803 52 338 3.5 5.2 0.00 1.49 0.00 94 1016.0
20260502105702 52 326 3.5 5.2 0.00 1.50 0.00 94 1016.1
20260502105604 52 331 2.6 5.2 0.00 1.50 0.00 94 1015.9
20260502105503 53 331 2.6 4.3 0.00 1.50 0.00 94 1015.9
20260502105403 53 334 1.7 4.3 0.00 1.51 0.00 94 1015.9
20260502105306 53 353 1.7 4.3 0.00 1.51 0.00 94 1015.9
20260502105203 53 348 1.7 5.2 0.00 1.51 0.00 94 1015.9
20260502105101 53 348 1.7 5.2 0.00 1.51 0.00 94 1015.9
20260502105002 53 350 1.7 5.2 0.00 1.51 0.00 94 1015.9
20260502104903 53 357 2.6 5.2 0.00 1.51 0.00 94 1015.8
20260502104802 53 0 3.5 5.2 0.00 1.51 0.00 94 1015.8
20260502104703 53 0 2.6 6.1 0.00 1.51 0.00 94 1015.8
20260502104603 53 340 2.6 6.1 0.00 1.51 0.00 94 1015.7
20260502104502 53 4 2.6 6.1 0.00 1.51 0.00 94 1015.8
20260502104402 53 333 3.5 6.1 0.00 1.51 0.00 94 1015.7
20260502104304 53 0 3.5 6.1 0.00 1.51 0.00 94 1015.8
20260502104203 53 0 3.5 6.1 0.00 1.51 0.00 94 1015.7
20260502104104 53 28 3.5 6.1 0.00 1.51 0.00 94 1015.8
20260502104003 53 354 2.6 6.1 0.00 1.51 0.00 94 1015.8
20260502103854 53 0 3.5 6.1 0.00 1.52 0.00 94 1015.7
20260502103751 53 0 3.5 6.1 0.00 1.52 0.00 94 1015.7
20260502103650 53 357 2.6 6.1 0.00 1.54 0.00 94 1015.6
20260502103548 53 334 3.5 6.1 0.00 1.54 0.00 94 1015.7
20260502103445 53 0 3.5 6.1 0.00 1.54 0.00 94 1015.7
20260502103344 53 353 2.6 6.1 0.00 1.54 0.00 94 1015.7
20260502103245 53 357 2.6 6.1 0.00 1.56 0.00 94 1015.7
20260502103140 53 357 2.6 6.1 0.00 1.56 0.00 94 1015.7
20260502103041 53 345 3.5 6.1 0.00 1.58 0.00 94 1015.7
20260502102940 53 355 3.5 6.1 0.00 1.59 0.00 94 1015.7
20260502102838 53 357 3.5 6.1 0.00 1.60 0.00 94 1015.7
20260502102737 53 357 3.5 6.1 0.00 1.60 0.00 94 1015.7
20260502102636 53 353 3.5 5.2 0.00 1.61 0.00 94 1015.7
20260502102533 53 350 3.5 5.2 0.00 1.61 0.00 94 1015.7
20260502102431 53 347 3.5 5.2 0.00 1.61 0.00 94 1015.7
20260502102331 53 350 2.6 5.2 0.00 1.62 0.00 93 1015.7
20260502102231 53 348 2.6 6.1 0.00 1.62 0.00 93 1015.7
20260502102132 53 327 2.6 6.1 0.00 1.62 0.00 94 1015.7
20260502102031 53 345 2.6 6.1 0.00 1.62 0.00 93 1015.6
20260502101931 53 345 1.7 6.1 0.00 1.62 0.00 94 1015.6
20260502101832 53 338 2.6 6.1 0.00 1.62 0.00 94 1015.6
20260502101731 53 334 3.5 6.1 0.00 1.63 0.00 94 1015.6
20260502101631 53 354 3.5 6.1 0.00 1.63 0.00 94 1015.6
20260502101532 53 344 3.5 6.1 0.00 1.65 0.00 94 1015.5
20260502101431 53 343 3.5 6.1 0.00 1.65 0.00 94 1015.6
20260502101332 53 329 3.5 6.1 0.00 1.65 0.00 93 1015.5
20260502101232 53 341 3.5 5.2 0.00 1.65 0.00 93 1015.5
20260502101133 53 0 3.5 6.1 0.00 1.65 0.00 93 1015.4
20260502101032 53 348 2.6 6.1 0.00 1.65 0.00 93 1015.4
20260502100921 53 348 2.6 6.1 0.00 1.65 0.00 93 1015.4
20260502100821 53 348 2.6 6.1 0.00 1.65 0.00 93 1015.4
20260502100722 53 348 2.6 6.1 0.00 1.67 0.00 93 1015.3
20260502100620 53 348 2.6 6.1 0.00 1.67 0.00 93 1015.3
20260502100520 53 0 2.6 6.1 0.00 1.67 0.00 93 1015.3
20260502100420 53 338 3.5 7.8 0.00 1.67 0.00 93 1015.2
20260502100320 53 348 3.5 7.8 0.00 1.69 0.00 93 1015.2
20260502100220 53 0 4.3 7.8 0.00 1.69 0.00 93 1015.2
20260502100121 53 353 4.3 7.8 0.00 1.71 0.00 93 1015.2
20260502091520 53 17 1.7 6.1 0.00 2.20 0.00 92 1014.5
20260502091419 54 17 1.7 6.1 0.00 2.20 0.00 92 1014.5
20260502091319 54 4 1.7 6.1 0.00 2.20 0.00 92 1014.5
20260502091219 54 4 1.7 6.1 0.00 2.20 0.00 92 1014.4
20260502091119 54 3 1.7 6.1 0.00 2.20 0.00 92 1014.4
20260502091019 54 4 1.7 6.1 0.00 2.20 0.00 92 1014.3
20260502090919 54 3 2.6 6.1 0.00 2.20 0.00 92 1014.4
20260502090820 54 4 2.6 6.1 0.00 2.20 0.00 92 1014.4
20260502090719 54 18 1.7 6.1 0.00 2.20 0.00 92 1014.4
20260502090620 54 18 2.6 6.1 0.00 2.20 0.00 92 1014.4
20260502090521 54 17 2.6 6.1 0.00 2.20 0.00 92 1014.3
20260502090420 54 6 2.6 6.1 0.00 2.20 0.00 92 1014.3
20260502090319 54 20 2.6 6.1 0.00 2.20 0.00 92 1014.3
20260502090219 54 0 2.6 6.1 0.00 2.20 0.00 92 1014.2
20260502090120 54 0 3.5 6.1 0.00 2.20 0.00 92 1014.2
20260502071531 55 14 5.2 13.0 0.00 2.56 0.00 93 1014.2
20260502071431 55 38 5.2 13.0 0.00 2.56 0.00 94 1014.2
20260502071332 55 31 5.2 13.0 0.00 2.56 0.00 94 1014.2
20260502071230 55 45 4.3 13.0 0.00 2.56 0.00 94 1014.2
20260502071130 55 4 4.3 13.0 0.00 2.56 0.00 94 1014.2
20260502071032 55 32 5.2 13.0 0.00 2.56 0.00 94 1014.3
20260502070931 55 13 7.0 13.0 0.00 2.56 0.00 94 1014.3
20260502070831 55 28 5.2 13.0 0.00 2.56 0.00 94 1014.3
20260502070732 55 14 4.3 10.4 0.00 2.56 0.00 94 1014.3
20260502070633 55 14 4.3 10.4 0.00 2.56 0.00 94 1014.2
20260502070533 55 358 4.3 10.4 0.00 2.56 0.00 94 1014.3
20260502070432 55 358 4.3 10.4 0.00 2.56 0.00 94 1014.3
20260502070321 55 4 4.3 10.4 0.00 2.56 0.00 94 1014.2
20260502070222 55 0 4.3 10.4 0.00 2.56 0.00 94 1014.3
20260502070119 55 23 5.2 10.4 0.00 2.56 0.00 94 1014.3
20260502070017 55 66 6.1 10.4 0.00 2.56 0.00 94 1014.2
20260502065916 55 20 7.0 10.4 0.00 2.56 0.00 94 1014.2
20260502065816 55 20 7.0 10.4 0.00 2.56 0.00 94 1014.2
20260502065716 55 6 7.0 10.4 0.00 2.56 0.00 94 1014.2
20260502065618 55 42 6.1 10.4 0.00 2.56 0.00 94 1014.2
20260502065518 55 23 5.2 10.4 0.00 2.56 0.00 94 1014.2
20260502065416 55 31 4.3 10.4 0.00 2.56 0.00 94 1014.2
20260502065317 55 10 4.3 10.4 0.00 2.56 0.00 94 1014.2
20260502065215 55 39 4.3 10.4 0.00 2.56 0.00 94 1014.1
20260502065115 55 38 4.3 10.4 0.00 2.56 0.00 94 1014.1
20260502065012 55 13 6.1 10.4 0.00 2.56 0.00 94 1014.1
20260502064910 55 8 7.0 10.4 0.00 2.56 0.00 94 1014.1
20260502064811 55 21 6.1 9.6 0.00 2.56 0.00 94 1014.0
20260502064705 55 20 5.2 9.6 0.00 2.56 0.00 94 1014.0
20260502064603 55 41 4.3 11.3 0.00 2.56 0.00 94 1014.0
20260502064504 55 24 5.2 11.3 0.00 2.56 0.00 94 1013.9
20260502064402 55 0 4.3 12.2 0.00 2.56 0.00 94 1014.0
20260502064303 55 357 5.2 12.2 0.00 2.56 0.00 94 1014.0
20260502064203 55 0 5.2 12.2 0.00 2.56 0.00 94 1014.0
20260502064103 55 37 5.2 12.2 0.00 2.56 0.00 94 1014.0
20260502064005 55 21 5.2 12.2 0.00 2.56 0.00 94 1013.9
20260502063902 55 11 5.2 12.2 0.00 2.56 0.00 94 1013.9
20260502063802 55 16 7.0 12.2 0.00 2.56 0.00 94 1013.9
20260502063703 55 37 7.8 12.2 0.00 2.56 0.00 94 1014.0
20260502063602 55 62 7.8 12.2 0.00 2.56 0.00 94 1014.0
20260502063502 55 39 6.1 12.2 0.00 2.56 0.00 94 1013.9
20260502063402 55 34 5.2 11.3 0.00 2.56 0.00 94 1014.0
20260502063302 55 20 5.2 11.3 0.00 2.56 0.00 94 1014.0
20260502063202 55 34 5.2 11.3 0.00 2.56 0.00 94 1014.0
20260502063102 55 39 4.3 11.3 0.00 2.56 0.00 94 1014.0
20260502063003 55 20 5.2 13.9 0.00 2.56 0.00 94 1014.0
20260502062902 55 42 5.2 13.9 0.00 2.56 0.00 94 1014.0
20260502062802 55 18 5.2 13.9 0.00 2.56 0.00 94 1013.9
20260502062703 55 0 7.8 13.9 0.00 2.56 0.00 94 1013.9
20260502062603 55 54 7.0 13.9 0.00 2.56 0.00 94 1014.0
20260502062502 55 8 5.2 13.9 0.00 2.56 0.00 94 1014.0
20260502062402 55 30 6.1 14.8 0.00 2.56 0.00 94 1014.0
20260502062306 55 27 7.0 15.6 0.00 2.56 0.00 94 1014.0
20260502062202 55 13 7.0 15.6 0.00 2.56 0.00 94 1014.0
20260502062101 55 38 6.1 15.6 0.00 2.56 0.00 94 1014.0
20260502062003 55 44 5.2 15.6 0.00 2.56 0.00 94 1014.0
20260502061903 55 345 5.2 15.6 0.00 2.56 0.00 94 1014.1
20260502061802 55 16 7.8 15.6 0.00 2.56 0.00 94 1014.0
20260502061703 55 54 7.8 15.6 0.00 2.56 0.00 94 1014.0
20260502061604 55 55 8.7 15.6 0.00 2.56 0.00 94 1014.0
20260502061502 55 21 9.6 15.6 0.00 2.56 0.00 94 1013.9
20260502061402 55 42 6.1 15.6 0.00 2.56 0.00 94 1014.0
20260502061303 55 34 4.3 11.3 0.00 2.56 0.00 94 1014.0
20260502061203 55 8 6.1 11.3 0.00 2.56 0.00 94 1014.1
20260502061103 55 18 7.0 11.3 0.00 2.56 0.00 94 1014.0
20260502061002 55 31 7.8 11.3 0.00 2.56 0.00 94 1014.0
20260502060903 55 17 7.0 11.3 0.00 2.56 0.00 94 1014.0
20260502060802 55 7 5.2 10.4 0.00 2.56 0.00 94 1014.0
20260502060702 55 7 5.2 10.4 0.00 2.56 0.00 94 1014.0
20260502060603 55 0 6.1 10.4 0.00 2.56 0.00 94 1014.0
20260502060502 55 14 5.2 10.4 0.00 2.56 0.00 95 1014.1
20260502060403 55 24 6.1 10.4 0.00 2.56 0.00 94 1014.0
20260502060303 55 17 6.1 10.4 0.00 2.56 0.00 94 1014.0
20260502060202 55 48 5.2 10.4 0.00 2.57 0.00 94 1014.0
20260502060104 55 10 4.3 10.4 0.00 2.57 0.00 94 1014.0
20260502060002 55 0 5.2 10.4 0.00 2.57 0.00 94 1013.9
20260502055903 55 338 5.2 10.4 0.00 2.57 0.00 94 1013.9
20260502055802 55 27 4.3 10.4 0.00 2.57 0.00 94 1013.8
20260502055701 55 17 6.1 10.4 0.00 2.57 0.00 95 1013.9
20260502055603 55 358 6.1 10.4 0.00 2.57 0.00 94 1013.9
20260502055504 55 25 6.1 11.3 0.00 2.57 0.00 95 1013.9
20260502055402 55 7 7.0 11.3 0.00 2.57 0.00 94 1013.8
20260502055305 55 28 6.1 13.0 0.00 2.57 0.00 94 1013.8
20260502055202 55 39 6.1 13.0 0.00 2.58 0.00 94 1013.8
20260502055101 55 20 5.2 13.0 0.00 2.58 0.00 94 1013.9
20260502055002 55 18 5.2 13.0 0.00 2.58 0.00 94 1013.8
20260502054904 55 16 5.2 14.8 0.00 2.58 0.00 95 1013.7
20260502054802 55 0 5.2 14.8 0.00 2.58 0.00 95 1013.8
20260502054701 55 28 6.1 14.8 0.00 2.58 0.00 94 1013.7
20260502054603 55 8 7.8 14.8 0.00 2.58 0.00 95 1013.7
20260502054504 55 24 8.7 14.8 0.00 2.58 0.00 94 1013.7
20260502054402 55 21 8.7 14.8 0.00 2.58 0.00 94 1013.8
20260502054302 55 6 7.0 15.6 0.00 2.58 0.00 94 1013.7
20260502054203 55 14 6.1 15.6 0.00 2.58 0.00 94 1013.8
20260502054102 55 17 7.0 18.2 0.00 2.58 0.00 95 1013.8
20260502054004 55 14 8.7 18.2 0.00 2.58 0.00 95 1013.8
20260502053904 55 1 7.0 18.2 0.00 2.58 0.00 94 1013.9
20260502053802 55 14 6.1 18.2 0.00 2.58 0.00 95 1013.8
20260502053703 55 24 5.2 18.2 0.00 2.58 0.00 95 1013.9
20260502053603 55 0 6.1 18.2 0.00 2.58 0.00 94 1013.8
20260502053505 55 17 8.7 18.2 0.00 2.58 0.00 94 1013.9
20260502053404 55 25 9.6 18.2 0.00 2.58 0.00 95 1013.9
20260502053302 55 343 8.7 18.2 0.00 2.59 0.00 95 1014.0
20260502053203 55 24 7.8 18.2 0.00 2.59 0.00 95 1014.0
20260502053102 55 10 7.8 15.6 0.00 2.59 0.00 95 1014.0
20260502053002 55 6 7.8 15.6 0.00 2.59 0.00 95 1014.0
20260502052902 55 31 5.2 15.6 0.00 2.59 0.00 95 1014.0
20260502052803 55 13 7.0 15.6 0.00 2.59 0.00 95 1014.0
20260502052703 55 24 8.7 15.6 0.00 2.59 0.00 95 1013.9
20260502052603 55 6 8.7 15.6 0.00 2.59 0.00 95 1013.9
20260502052504 55 27 7.8 15.6 0.00 2.59 0.00 95 1014.0
20260502052403 55 32 5.2 15.6 0.00 2.59 0.00 95 1013.9
20260502052305 55 30 4.3 15.6 0.00 2.60 0.00 95 1013.9
20260502052203 55 21 5.2 15.6 0.00 2.60 0.00 95 1014.0
20260502052102 55 20 7.8 15.6 0.00 2.60 0.00 95 1014.0
20260502052004 55 11 7.8 15.6 0.00 2.60 0.00 95 1014.0
20260502051903 55 25 6.1 13.0 0.00 2.60 0.00 95 1014.0
20260502051804 55 16 6.1 13.0 0.00 2.61 0.00 95 1014.0
20260502051701 55 0 7.0 13.0 0.00 2.61 0.00 95 1014.0
20260502051603 55 25 8.7 13.0 0.00 2.62 0.00 95 1014.0
20260502051503 56 0 7.8 13.0 0.00 2.63 0.00 95 1013.9
20260502051403 56 24 6.1 13.0 0.00 2.63 0.00 95 1013.9
20260502051304 56 42 5.2 13.0 0.00 2.65 0.00 95 1013.9
20260502051201 56 35 5.2 13.0 0.00 2.65 0.00 95 1014.0
20260502051102 56 331 6.1 13.0 0.00 2.65 0.00 95 1013.9
20260502051002 56 47 7.0 13.0 0.00 2.67 0.00 95 1013.9
20260502050901 56 38 8.7 13.0 0.00 2.70 0.00 95 1014.0
20260502050803 56 10 7.8 13.0 0.00 2.70 0.00 95 1013.9
20260502050703 56 17 6.1 11.3 0.00 2.70 0.00 95 1013.9
20260502050601 56 27 7.0 12.2 0.00 2.70 0.00 95 1013.9
20260502050504 56 10 7.8 12.2 0.00 2.70 0.00 95 1013.9
20260502050403 56 31 5.2 12.2 0.00 2.72 0.00 95 1013.9
20260502050302 56 31 3.5 12.2 0.00 2.73 0.00 95 1013.9
20260502050201 56 34 3.5 12.2 0.00 2.74 0.00 95 1013.9
20260502050002 56 25 4.3 12.2 0.00 2.76 0.00 95 1014.0
20260502045902 56 358 4.3 12.2 0.00 2.76 2.96 95 1013.9
20260502045803 56 16 7.0 12.2 0.00 2.76 2.96 95 1013.9
20260502045703 56 28 7.0 12.2 0.00 2.76 2.96 95 1014.0
20260502045603 56 21 5.2 11.3 0.00 2.76 2.96 95 1013.9
20260502045502 56 24 6.1 11.3 0.00 2.76 2.96 95 1013.9
20260502045404 56 49 5.2 13.0 0.00 2.76 2.96 95 1014.0
20260502045305 56 47 5.2 13.0 0.00 2.76 2.96 95 1013.9
20260502045202 56 11 5.2 13.0 0.00 2.76 2.96 95 1013.9
20260502045104 56 0 7.0 13.0 0.00 2.76 2.96 95 1013.9
20260502045004 56 32 5.2 13.0 0.00 2.76 2.96 95 1013.9
20260502044904 56 28 5.2 13.0 0.00 2.76 2.96 95 1013.9
20260502044802 56 0 7.8 13.0 0.00 2.76 2.96 95 1014.0
20260502044702 56 23 7.8 13.0 0.00 2.76 2.96 95 1014.0
20260502044602 56 30 7.0 13.0 0.00 2.76 2.96 95 1014.0
20260502044504 56 13 7.8 13.0 0.00 2.76 2.96 95 1014.0
20260502044403 56 35 6.1 12.2 0.00 2.76 2.96 95 1014.0
20260502044301 56 10 3.5 10.4 0.00 2.76 2.96 95 1014.0
20260502044202 56 358 5.2 10.4 0.00 2.76 2.96 95 1014.0
20260502044103 56 358 6.1 10.4 0.00 2.76 2.96 95 1014.0
20260502044003 56 11 7.0 11.3 0.00 2.76 2.96 95 1014.1
20260502043904 56 20 6.1 11.3 0.00 2.76 2.96 95 1014.0
20260502043803 56 27 3.5 13.0 0.00 2.76 2.96 95 1014.0
20260502043703 56 14 5.2 15.6 0.00 2.76 2.96 95 1014.0
20260502043604 56 14 5.2 15.6 0.00 2.76 2.96 95 1013.9
20260502043503 56 32 6.1 15.6 0.00 2.76 2.96 95 1013.8
20260502043404 56 16 5.2 15.6 0.00 2.76 2.96 95 1013.8
20260502043303 56 358 5.2 15.6 0.00 2.76 2.96 95 1013.8
20260502043204 56 38 7.8 15.6 0.00 2.76 2.96 95 1013.8
20260502043103 56 41 7.8 15.6 0.00 2.76 2.96 95 1013.8
20260502043006 56 28 7.8 15.6 0.00 2.76 2.96 95 1013.8
20260502042904 56 30 10.4 15.6 0.00 2.76 2.96 95 1013.7
20260502042802 56 0 8.7 15.6 0.00 2.76 2.96 95 1013.8
20260502042704 56 62 6.1 11.3 0.00 2.76 2.96 95 1013.8
20260502042603 56 7 5.2 11.3 0.00 2.76 2.96 95 1013.8
20260502042504 56 39 3.5 11.3 0.00 2.76 2.96 95 1013.9
20260502042404 56 0 4.3 11.3 0.00 2.76 2.96 95 1013.8
20260502042305 56 0 6.1 11.3 0.00 2.76 2.96 95 1013.8
20260502042201 56 10 7.8 11.3 0.00 2.76 2.96 95 1013.9
20260502042102 56 355 6.1 11.3 0.00 2.76 2.96 95 1013.9
20260502042004 56 347 5.2 11.3 0.00 2.76 2.96 95 1013.9
20260502041901 56 25 5.2 11.3 0.00 2.76 2.96 95 1013.9
20260502041801 56 1 6.1 11.3 0.00 2.76 2.96 95 1013.9
20260502041703 56 0 7.0 13.0 0.00 2.76 2.96 95 1014.0
20260502041602 56 348 6.1 13.0 0.00 2.76 2.96 95 1014.0
20260502041501 56 324 7.0 13.0 0.00 2.76 2.96 95 1013.9
20260502041404 56 7 6.1 13.0 0.00 2.76 2.96 95 1014.0
20260502041304 56 350 4.3 13.0 0.00 2.76 2.96 95 1014.0
20260502041202 56 358 5.2 13.0 0.00 2.76 2.96 95 1014.0
20260502041102 56 348 5.2 13.0 0.00 2.76 2.96 95 1014.0
20260502041004 56 10 6.1 13.0 0.00 2.76 2.96 95 1013.9
20260502040902 56 20 7.8 13.0 0.00 2.76 2.96 95 1014.0
20260502040801 56 1 7.8 13.0 0.00 2.76 2.96 95 1013.9
20260502040703 56 14 6.1 13.0 0.01 2.76 2.96 95 1013.9
20260502040604 56 37 5.2 17.4 0.01 2.76 2.96 95 1013.9
20260502040502 56 11 5.2 17.4 0.01 2.76 2.96 95 1013.9
20260502040401 56 21 5.2 17.4 0.01 2.76 2.96 95 1014.0
20260502040300 56 18 6.1 17.4 0.01 2.76 2.96 95 1013.9
20260502040158 56 38 7.0 17.4 0.01 2.76 2.96 95 1013.9
20260502040059 56 13 5.2 17.4 0.01 2.76 2.96 95 1014.0
20260502035958 56 8 7.0 17.4 0.01 2.75 2.96 95 1013.9
20260502035857 56 334 7.0 17.4 0.01 2.75 2.96 95 1013.9
20260502035756 56 0 7.0 17.4 0.01 2.75 2.96 95 1014.0
20260502035654 56 0 7.8 17.4 0.01 2.75 2.96 95 1013.9
20260502035553 56 30 6.1 17.4 0.01 2.75 2.96 95 1013.8
20260502035451 56 28 8.7 17.4 0.01 2.75 2.96 95 1013.8
20260502035339 56 34 7.8 17.4 0.01 2.75 2.96 95 1013.7
20260502035238 56 350 7.8 17.4 0.01 2.75 2.96 95 1013.7
20260502035137 56 0 7.8 17.4 0.01 2.75 2.96 95 1013.7
20260502035034 56 17 8.7 17.4 0.01 2.75 2.96 95 1013.6
20260502034933 56 18 9.6 17.4 0.01 2.75 2.96 95 1013.5
20260502034832 56 0 8.7 17.4 0.01 2.75 2.96 95 1013.6
20260502034731 56 13 8.7 15.6 0.01 2.75 2.96 95 1013.5
20260502034631 56 0 8.7 15.6 0.01 2.75 2.96 95 1013.5
20260502034532 56 333 6.1 15.6 0.01 2.75 2.96 95 1013.5
20260502034431 56 358 6.1 13.9 0.01 2.75 2.96 95 1013.7
20260502034332 56 10 6.1 13.9 0.01 2.75 2.96 95 1013.6
20260502034230 56 358 6.1 13.9 0.01 2.75 2.96 95 1013.5
20260502034132 56 337 7.8 13.9 0.01 2.75 2.96 95 1013.5
20260502034030 56 32 7.8 13.9 0.01 2.75 2.96 95 1013.5
20260502033928 56 343 7.8 13.9 0.01 2.75 2.96 95 1013.5
20260502033827 56 355 7.0 13.9 0.01 2.75 2.96 95 1013.5
20260502033725 56 344 7.8 13.9 0.01 2.75 2.96 95 1013.4
20260502033625 56 357 7.8 13.9 0.01 2.75 2.96 95 1013.5
20260502033523 56 348 7.8 13.9 0.01 2.75 2.96 95 1013.4
20260502033421 56 0 7.8 13.0 0.01 2.75 2.96 95 1013.5
20260502033319 56 10 6.1 11.3 0.02 2.75 2.96 95 1013.4
20260502033217 56 1 5.2 12.2 0.02 2.75 2.96 95 1013.4
20260502033117 56 0 5.2 14.8 0.02 2.75 2.96 95 1013.3
20260502033016 56 20 5.2 14.8 0.02 2.75 2.96 95 1013.3
20260502032914 56 350 5.2 14.8 0.02 2.75 2.96 95 1013.4
20260502032813 56 358 6.1 14.8 0.02 2.75 2.96 95 1013.3
20260502032711 56 1 5.2 14.8 0.02 2.75 2.96 95 1013.3
20260502032611 56 351 4.3 14.8 0.02 2.75 2.96 95 1013.1
20260502032513 56 354 5.2 14.8 0.02 2.75 2.96 95 1013.3
20260502032412 56 6 7.0 14.8 0.02 2.75 2.96 95 1013.2
20260502032312 56 18 8.7 14.8 0.02 2.75 2.96 95 1013.0
20260502032211 56 7 7.8 13.9 0.02 2.75 2.96 95 1013.1
20260502032112 56 24 7.8 13.0 0.02 2.75 2.96 95 1013.1
20260502032013 56 357 7.0 13.0 0.02 2.75 2.96 95 1013.0
20260502031912 56 1 5.2 13.0 0.02 2.75 2.96 95 1013.0
20260502031812 56 357 6.1 13.0 0.02 2.75 2.96 95 1013.0
20260502031711 56 39 7.8 13.0 0.02 2.75 2.96 95 1013.0
20260502031611 56 357 7.0 13.9 0.02 2.75 2.96 95 1013.0
20260502031512 56 1 5.2 13.9 0.02 2.75 2.96 95 1012.9
20260502031413 56 14 7.0 13.9 0.02 2.75 2.96 95 1012.8
20260502031312 56 39 6.1 13.9 0.03 2.75 2.96 95 1012.9
20260502031211 56 1 6.1 13.9 0.03 2.75 2.96 95 1012.9
20260502031112 56 4 6.1 13.9 0.03 2.75 2.96 95 1012.9
20260502031011 56 28 6.1 13.9 0.03 2.75 2.96 95 1012.9
20260502030913 56 20 7.0 13.9 0.03 2.75 2.96 95 1012.9
20260502030812 56 334 7.8 13.9 0.03 2.75 2.96 95 1012.8
20260502030712 56 3 6.1 13.9 0.03 2.75 2.95 95 1012.9
20260502030611 56 354 6.1 18.2 0.02 2.75 2.95 95 1012.8
20260502030513 56 16 7.8 18.2 0.02 2.75 2.95 95 1012.8
20260502030411 56 6 7.8 18.2 0.02 2.75 2.95 95 1012.7
20260502030312 56 32 6.1 18.2 0.02 2.75 2.95 95 1012.6
20260502030213 56 355 5.2 18.2 0.02 2.75 2.95 95 1012.5
20260502030112 56 0 6.1 18.2 0.02 2.75 2.95 95 1012.4
20260502030011 56 4 5.2 18.2 0.02 2.73 2.95 95 1012.3
20260502025911 56 28 7.0 18.2 0.02 2.73 2.95 95 1012.2
20260502025811 56 31 10.4 18.2 0.02 2.73 2.95 95 1012.2
20260502025712 56 6 11.3 18.2 0.02 2.73 2.95 95 1012.1
20260502025612 56 20 7.8 15.6 0.02 2.73 2.95 95 1012.2
20260502025511 56 3 6.1 15.6 0.02 2.73 2.95 95 1012.3
20260502025412 56 3 5.2 15.6 0.02 2.73 2.95 95 1012.4
20260502025311 56 17 7.8 15.6 0.02 2.73 2.95 95 1012.5
20260502025210 56 30 9.6 16.5 0.02 2.73 2.95 95 1012.5
20260502025111 56 336 8.7 16.5 0.02 2.73 2.95 95 1012.4
20260502025010 56 355 7.8 16.5 0.03 2.73 2.95 95 1012.4
20260502024911 56 4 7.8 16.5 0.03 2.73 2.95 95 1012.3
20260502024810 56 350 7.8 16.5 0.03 2.73 2.95 95 1012.2
20260502024710 56 31 8.7 16.5 0.03 2.73 2.95 95 1012.2
20260502024612 56 343 9.6 16.5 0.03 2.73 2.95 95 1012.2
20260502024511 56 0 7.8 16.5 0.03 2.73 2.95 96 1012.2
20260502024411 56 16 7.8 16.5 0.03 2.73 2.95 95 1012.1
20260502024311 56 28 7.8 16.5 0.03 2.73 2.95 96 1012.0
20260502024210 56 18 7.8 13.9 0.03 2.73 2.95 95 1012.1
20260502024110 56 28 8.7 13.9 0.03 2.73 2.95 96 1012.0
20260502024012 56 37 7.8 13.9 0.03 2.73 2.95 96 1012.2
20260502023910 56 6 7.0 13.9 0.03 2.73 2.95 96 1012.2
20260502023811 56 0 7.0 13.9 0.03 2.73 2.95 95 1012.3
20260502023710 56 353 8.7 13.9 0.04 2.73 2.95 95 1012.3
20260502023611 56 358 9.6 13.9 0.04 2.73 2.95 95 1012.5
20260502023510 56 17 9.6 13.0 0.04 2.73 2.95 95 1012.5
20260502023411 56 341 9.6 13.0 0.05 2.73 2.95 96 1012.5
20260502023311 56 0 5.2 13.0 0.04 2.73 2.94 95 1012.6
20260502023212 56 0 5.2 13.0 0.04 2.73 2.94 95 1012.6
20260502023111 56 0 5.2 13.0 0.04 2.73 2.94 95 1012.6
20260502023012 56 0 5.2 13.0 0.04 2.73 2.94 95 1012.4
20260502022911 56 8 5.2 13.0 0.04 2.73 2.94 95 1012.5
20260502022810 56 358 7.0 13.0 0.05 2.73 2.94 95 1012.5
20260502022711 56 358 7.8 13.0 0.05 2.73 2.94 95 1012.6
20260502022611 56 18 7.8 13.0 0.05 2.73 2.94 95 1012.5
20260502022510 56 358 7.8 12.2 0.05 2.73 2.94 95 1012.4
20260502022411 57 13 7.0 12.2 0.06 2.73 2.94 95 1012.3
20260502022311 57 4 5.2 13.0 0.06 2.73 2.94 95 1012.2
20260502022211 56 37 7.0 13.0 0.06 2.73 2.94 95 1012.2
20260502022111 57 8 7.8 13.0 0.06 2.73 2.94 95 1012.1
20260502022010 57 30 7.8 13.0 0.06 2.73 2.94 95 1012.0
20260502021911 57 0 6.1 13.0 0.07 2.73 2.94 95 1012.1
20260502021810 57 345 5.2 13.0 0.07 2.73 2.94 95 1012.1
20260502021711 57 16 6.1 13.0 0.07 2.73 2.94 95 1012.1
20260502021611 57 17 6.1 13.0 0.07 2.73 2.94 95 1012.2
20260502021510 57 336 7.8 13.0 0.07 2.73 2.94 95 1012.2
20260502021410 57 16 8.7 13.0 0.07 2.73 2.93 95 1012.2
20260502021310 57 11 7.0 12.2 0.06 2.73 2.93 95 1012.2
20260502021210 57 0 7.0 12.2 0.06 2.73 2.93 95 1012.3
20260502021110 57 7 7.8 12.2 0.06 2.73 2.93 95 1012.2
20260502021010 57 37 7.0 12.2 0.06 2.73 2.93 95 1012.3
20260502020912 57 1 6.1 12.2 0.06 2.73 2.93 95 1012.3
20260502020811 57 3 7.8 12.2 0.06 2.73 2.93 95 1012.2
20260502020710 57 0 6.1 12.2 0.06 2.73 2.93 95 1012.2
20260502020610 57 24 5.2 10.4 0.07 2.73 2.93 95 1012.3
20260502020512 57 7 6.1 10.4 0.07 2.73 2.93 95 1012.2
20260502020410 57 341 6.1 10.4 0.07 2.73 2.93 95 1012.2
20260502020310 57 0 6.1 12.2 0.07 2.73 2.93 95 1012.2
20260502020209 57 11 6.1 12.2 0.07 2.73 2.93 95 1012.2
20260502020110 57 0 5.2 12.2 0.07 2.73 2.93 96 1012.3
20260502020009 57 355 5.2 14.8 0.07 2.66 2.93 96 1012.2
20260502015909 57 0 5.2 14.8 0.07 2.66 2.93 96 1012.3
20260502015811 57 336 5.2 14.8 0.07 2.66 2.93 96 1012.1
20260502015710 57 0 7.0 14.8 0.07 2.66 2.93 96 1012.1
20260502015610 57 358 7.0 14.8 0.07 2.66 2.93 95 1012.1
20260502015510 57 358 7.0 14.8 0.08 2.66 2.93 95 1012.1
20260502015410 57 17 7.0 14.8 0.08 2.66 2.93 95 1012.0
20260502015309 57 21 7.0 14.8 0.08 2.66 2.93 95 1012.0
20260502015209 57 358 8.7 14.8 0.09 2.66 2.93 95 1012.1
20260502015109 57 354 7.8 14.8 0.09 2.66 2.93 95 1012.1
20260502015009 57 0 5.2 13.0 0.08 2.66 2.92 95 1012.0
20260502014909 58 358 6.1 16.5 0.09 2.66 2.92 95 1011.9
20260502014810 58 0 6.1 16.5 0.09 2.66 2.92 95 1011.9
20260502014709 58 314 7.0 16.5 0.10 2.66 2.92 95 1011.8
20260502014612 58 329 7.0 16.5 0.10 2.66 2.92 95 1011.8
20260502014509 58 337 5.2 16.5 0.10 2.66 2.92 95 1011.7
20260502014410 58 0 6.1 16.5 0.10 2.66 2.92 95 1011.7
20260502014309 58 4 6.1 16.5 0.11 2.66 2.92 95 1011.6
20260502014210 58 4 6.1 16.5 0.11 2.66 2.92 95 1011.6
20260502014111 58 31 7.8 16.5 0.12 2.66 2.92 95 1011.4
20260502014010 58 0 10.4 16.5 0.12 2.66 2.92 95 1011.4
20260502013910 58 24 9.6 14.8 0.13 2.66 2.92 95 1011.4
20260502013810 58 337 7.0 11.3 0.13 2.66 2.91 96 1011.3
20260502013709 58 11 6.1 13.0 0.12 2.66 2.91 96 1011.4
20260502013609 58 13 6.1 13.9 0.12 2.66 2.91 96 1011.4
20260502013509 58 11 5.2 13.9 0.13 2.66 2.91 96 1011.4
20260502013410 58 8 7.0 13.9 0.12 2.66 2.90 95 1011.4
20260502013310 58 8 7.0 13.9 0.12 2.66 2.90 95 1011.3
20260502013210 58 8 7.0 13.9 0.12 2.66 2.90 95 1011.4
20260502013110 58 8 7.0 13.9 0.12 2.66 2.90 95 1011.2
20260502013010 58 0 7.0 13.9 0.12 2.66 2.90 95 1011.2
20260502012909 58 338 7.0 13.9 0.13 2.66 2.90 95 1011.2
20260502012808 58 0 7.8 13.9 0.12 2.66 2.89 95 1011.1
20260502012710 58 41 8.7 13.9 0.12 2.66 2.89 95 1011.1
20260502012608 58 4 7.0 10.4 0.12 2.66 2.89 95 1011.2
20260502012508 58 344 5.2 9.6 0.12 2.66 2.88 96 1011.3
20260502012405 58 41 3.5 9.6 0.11 2.66 2.88 96 1011.3
20260502012306 58 0 2.6 9.6 0.12 2.66 2.88 96 1011.4
20260502012203 58 21 3.5 9.6 0.12 2.66 2.88 96 1011.4
20260502012102 58 24 5.2 9.6 0.12 2.66 2.88 95 1011.4
20260502012004 58 20 6.1 9.6 0.12 2.66 2.87 95 1011.4
20260502011904 58 54 5.2 9.6 0.11 2.66 2.87 96 1011.4
20260502011801 58 13 5.2 9.6 0.11 2.66 2.87 95 1011.4
20260502011704 58 1 4.3 8.7 0.11 2.66 2.87 95 1011.6
20260502011603 58 11 3.5 9.6 0.11 2.66 2.87 95 1011.7
20260502011503 58 334 3.5 9.6 0.11 2.66 2.87 95 1011.8
20260502011401 58 358 3.5 9.6 0.12 2.66 2.87 95 1011.8
20260502011302 58 358 4.3 9.6 0.12 2.66 2.87 95 1011.9
20260502011202 58 340 4.3 9.6 0.12 2.66 2.87 95 1011.9
20260502011104 58 333 5.2 9.6 0.12 2.66 2.87 95 1011.9
20260502011002 58 331 5.2 9.6 0.12 2.66 2.87 95 1011.7
20260502010904 58 333 5.2 9.6 0.13 2.66 2.87 95 1011.6
20260502010802 58 350 5.2 10.4 0.13 2.66 2.87 95 1011.6
20260502010703 58 0 7.0 10.4 0.13 2.66 2.86 95 1011.5
20260502010603 58 324 5.2 10.4 0.12 2.66 2.86 95 1011.5
20260502010503 58 324 5.2 13.0 0.13 2.66 2.86 95 1011.4
20260502010403 58 324 5.2 13.0 0.13 2.66 2.86 95 1011.4
20260502010303 58 324 5.2 13.0 0.13 2.66 2.86 95 1011.4
20260502010203 58 312 5.2 13.0 0.13 2.66 2.86 95 1011.2
20260502010004 58 353 6.1 13.9 0.14 2.52 2.86 95 1011.0
20260502005903 58 350 6.1 13.9 0.14 2.52 2.86 95 1010.8
20260502005802 58 358 5.2 13.9 0.14 2.52 2.86 95 1010.6
20260502005702 58 324 7.8 13.9 0.14 2.52 2.86 95 1010.4
20260502005603 58 18 8.7 13.9 0.14 2.52 2.85 95 1010.2
20260502005503 58 4 7.8 13.9 0.13 2.52 2.85 95 1010.2
20260502005402 58 0 7.8 13.9 0.13 2.52 2.85 95 1010.1
20260502005305 58 6 7.8 13.9 0.13 2.52 2.85 95 1009.9
20260502005205 58 11 7.0 13.9 0.12 2.52 2.84 95 1010.0
20260502005103 58 31 6.1 12.2 0.12 2.52 2.84 96 1009.9
20260502005004 58 18 5.2 12.2 0.12 2.52 2.83 95 1010.0
20260502004902 58 358 5.2 12.2 0.11 2.52 2.83 95 1009.9
20260502004803 58 8 4.3 12.2 0.11 2.52 2.82 95 1010.0
20260502004704 58 0 6.1 12.2 0.10 2.52 2.82 95 1009.9
20260502004602 58 13 6.1 12.2 0.10 2.52 2.82 95 1009.9
20260502004504 58 1 6.1 11.3 0.10 2.52 2.82 95 1010.0
20260502004403 59 31 7.0 13.0 0.10 2.52 2.81 95 1010.1
20260502004304 59 11 7.8 13.0 0.09 2.52 2.81 95 1010.1
20260502004202 59 0 6.1 13.0 0.09 2.52 2.80 96 1010.3
20260502004102 59 0 5.2 13.0 0.08 2.52 2.80 95 1010.3
20260502004004 58 0 6.1 13.0 0.08 2.52 2.79 95 1010.4
20260502003903 58 27 6.1 13.0 0.07 2.52 2.79 95 1010.4
20260502003803 58 330 7.0 13.0 0.08 2.52 2.79 95 1010.4
20260502003702 58 329 6.1 13.0 0.08 2.52 2.79 95 1010.3
20260502003602 58 358 7.0 13.0 0.08 2.52 2.78 95 1010.2
20260502003503 58 11 7.0 13.0 0.07 2.52 2.78 95 1010.1
20260502003402 58 358 7.0 11.3 0.07 2.52 2.78 95 1010.1
20260502003302 59 353 6.1 11.3 0.08 2.52 2.78 95 1010.2
20260502003201 59 347 5.2 13.9 0.08 2.52 2.78 95 1010.2
20260502003102 59 0 5.2 13.9 0.08 2.52 2.78 95 1010.2
20260502003002 59 7 7.0 13.9 0.08 2.52 2.77 95 1010.3
20260502002902 59 0 6.1 13.9 0.08 2.52 2.77 95 1010.3
20260502002803 59 0 6.1 13.9 0.12 2.52 2.77 95 1010.3
20260502002703 59 299 7.0 13.9 0.12 2.52 2.77 95 1010.2
20260502002602 59 8 7.0 13.9 0.12 2.52 2.77 95 1010.2
20260502002504 59 306 7.0 13.9 0.12 2.52 2.77 95 1010.0
20260502002403 59 0 7.8 13.9 0.12 2.52 2.76 95 1009.9
20260502002305 59 32 7.8 13.9 0.12 2.52 2.76 95 1009.9
20260502002203 59 11 7.0 12.2 0.12 2.52 2.76 95 1009.8
20260502002103 59 0 7.0 12.2 0.13 2.52 2.76 95 1009.9
20260502002002 59 30 6.1 12.2 0.14 2.52 2.76 95 1010.0
20260502001902 59 0 5.2 9.6 0.14 2.52 2.76 95 1010.1
20260502001801 59 0 6.1 9.6 0.14 2.52 2.76 95 1010.2
20260502001658 59 11 5.2 9.6 0.15 2.52 2.76 95 1010.2
20260502001557 59 8 4.3 7.8 0.15 2.52 2.76 95 1010.2
20260502001456 59 0 5.2 7.8 0.15 2.52 2.75 95 1010.2
20260502001354 59 0 5.2 7.8 0.15 2.52 2.75 95 1010.3
20260502001253 59 266 4.3 7.8 0.15 2.52 2.75 95 1010.2
20260502001151 59 11 3.5 8.7 0.15 2.52 2.75 95 1010.1
20260502001050 59 24 3.5 8.7 0.15 2.52 2.75 95 1010.2
20260502000949 59 21 4.3 8.7 0.15 2.52 2.74 95 1010.2
20260502000846 59 11 4.3 8.7 0.14 2.52 2.74 95 1010.3
20260502000746 59 18 3.5 8.7 0.14 2.52 2.74 95 1010.4
20260502000643 59 20 3.5 8.7 0.14 2.52 2.73 95 1010.6
20260502000543 59 7 3.5 8.7 0.13 2.52 2.73 95 1010.7
20260502000440 59 288 3.5 8.7 0.13 2.52 2.73 95 1010.9
20260502000339 59 282 4.3 10.4 0.13 2.52 2.73 95 1010.9
20260502000240 59 302 5.2 10.4 0.13 2.52 2.73 95 1010.9
20260502000137 59 307 4.3 10.4 0.13 2.52 2.73 95 1010.9
20260502000037 59 289 4.3 10.4 0.12 2.52 2.72 95 1010.9
20260501235937 59 0 3.5 13.9 0.12 2.40 2.72 95 1010.7
20260501235834 59 290 3.5 13.9 0.12 2.40 2.72 95 1010.6
20260501235732 59 309 5.2 13.9 0.12 2.40 2.72 95 1010.6
20260501235631 59 3 4.3 13.9 0.12 2.40 2.72 95 1010.6
20260501235532 59 3 4.3 13.9 0.12 2.40 2.72 95 1010.5
20260501235433 59 307 5.2 13.9 0.12 2.40 2.72 95 1010.2
20260501235332 59 299 5.2 13.9 0.12 2.40 2.72 95 1010.0
20260501235232 59 289 6.1 13.9 0.12 2.40 2.72 95 1009.7
20260501235132 59 41 7.8 13.9 0.12 2.40 2.72 95 1009.4
20260501235031 59 20 9.6 13.9 0.12 2.40 2.72 95 1009.0
20260501234932 59 0 9.6 14.8 0.12 2.40 2.72 95 1008.8
20260501234831 59 6 10.4 14.8 0.12 2.40 2.72 95 1008.6
20260501234731 59 0 9.6 14.8 0.12 2.40 2.72 95 1008.6
20260501234633 59 28 10.4 14.8 0.12 2.40 2.72 95 1008.7
20260501234533 59 11 9.6 14.8 0.12 2.40 2.72 95 1008.8
20260501234431 59 28 7.8 14.8 0.12 2.40 2.72 95 1008.9
20260501234331 59 24 8.7 14.8 0.12 2.40 2.72 95 1008.9
20260501234231 59 48 8.7 14.8 0.12 2.40 2.72 95 1009.0
20260501234133 59 61 9.6 14.8 0.12 2.40 2.72 95 1009.0
20260501234031 59 51 8.7 14.8 0.12 2.40 2.72 95 1008.8
20260501233933 59 71 7.8 12.2 0.12 2.40 2.72 95 1008.9
20260501233832 59 51 7.8 13.0 0.11 2.40 2.71 95 1009.1
20260501233731 59 68 8.7 13.0 0.11 2.40 2.71 95 1009.3
20260501233632 59 52 7.8 13.0 0.11 2.40 2.71 95 1009.5
20260501233531 59 32 7.0 13.0 0.11 2.40 2.71 95 1009.6
20260501233431 59 27 6.1 13.0 0.11 2.40 2.71 95 1009.6
20260501233331 59 21 6.1 13.0 0.11 2.40 2.70 95 1009.5
20260501233232 59 41 5.2 13.0 0.10 2.40 2.70 95 1009.4
20260501233132 59 47 7.0 13.0 0.10 2.40 2.70 95 1009.4
20260501233031 59 59 9.6 13.0 0.10 2.40 2.70 95 1009.3
20260501232933 59 37 9.6 13.0 0.09 2.40 2.69 95 1009.2
20260501232832 59 56 8.7 12.2 0.09 2.40 2.65 95 1009.4
20260501232732 59 23 8.7 12.2 0.05 2.40 2.65 95 1009.5
20260501232632 59 23 8.7 12.2 0.05 2.40 2.65 95 1009.5
20260501232533 59 23 8.7 12.2 0.05 2.40 2.65 95 1009.5
20260501232432 59 23 8.7 12.2 0.05 2.40 2.65 95 1009.6
20260501232332 59 23 7.8 12.2 0.04 2.40 2.64 95 1009.6
20260501232232 59 17 7.8 12.2 0.04 2.40 2.64 95 1009.8
20260501232131 60 28 6.1 11.3 0.03 2.40 2.63 95 1009.9
20260501232031 60 18 6.1 10.4 0.03 2.40 2.62 95 1010.1
20260501231932 60 8 7.0 10.4 0.02 2.40 2.62 95 1010.2
20260501231831 60 17 7.0 10.4 0.02 2.40 2.62 95 1010.4
20260501231732 60 32 5.2 11.3 0.02 2.40 2.61 95 1010.5
20260501231632 60 6 4.3 13.0 0.02 2.40 2.61 95 1010.5
20260501231532 60 42 4.3 13.0 0.02 2.40 2.61 95 1010.6
20260501231431 60 35 4.3 13.9 0.01 2.40 2.60 95 1010.6
20260501231327 60 21 4.3 13.9 0.01 2.40 2.60 95 1010.6
20260501231222 59 11 3.5 13.9 0.01 2.40 2.60 95 1010.5
20260501231122 59 10 3.5 13.9 0.01 2.40 2.60 95 1010.4
20260501231020 59 28 5.2 13.9 0.01 2.40 2.60 95 1010.2
20260501230917 59 37 7.8 13.9 0.01 2.40 2.60 95 1010.0
20260501230815 59 49 7.8 13.9 0.01 2.40 2.60 95 1010.0
20260501230715 59 37 7.8 13.9 0.01 2.40 2.60 95 1009.8
20260501230613 60 28 7.8 13.9 0.01 2.40 2.60 95 1009.8
20260501230511 60 18 7.0 13.9 0.01 2.40 2.60 95 1009.8
20260501230410 60 38 7.0 11.3 0.01 2.40 2.60 95 1009.8
20260501230310 60 54 7.0 11.3 0.01 2.40 2.60 95 1009.8
20260501230207 60 34 5.2 11.3 0.01 2.40 2.60 95 1009.7
20260501230108 60 0 5.2 12.2 0.01 2.40 2.60 95 1009.6
20260501230006 60 42 3.5 13.0 0.01 2.39 2.60 95 1009.4
20260501225906 60 38 3.5 13.0 0.01 2.39 2.60 95 1009.4
20260501225808 60 58 5.2 13.0 0.01 2.39 2.60 95 1009.1
20260501225706 60 39 7.0 19.1 0.01 2.39 2.60 95 1008.9
20260501225607 60 71 6.1 19.1 0.01 2.39 2.60 96 1008.8
20260501225505 60 102 4.3 19.1 0.01 2.39 2.60 96 1008.6
20260501225407 60 47 4.3 19.1 0.01 2.39 2.60 96 1008.4
20260501225307 60 47 7.0 19.1 0.01 2.39 2.60 96 1008.3
20260501225205 60 99 7.8 19.1 0.02 2.39 2.60 96 1008.3
20260501225106 60 51 8.7 19.1 0.02 2.39 2.60 96 1008.3
20260501225005 60 72 8.7 19.1 0.02 2.39 2.60 96 1008.3
20260501224906 60 49 11.3 19.1 0.02 2.39 2.60 96 1008.3
20260501224807 60 73 11.3 19.1 0.02 2.39 2.60 96 1008.4
20260501224706 60 42 8.7 19.1 0.03 2.39 2.60 96 1008.5
20260501224605 60 68 9.6 19.1 0.03 2.39 2.60 96 1008.6
20260501224505 60 39 9.6 19.1 0.03 2.39 2.60 96 1008.7
20260501224407 60 42 9.6 18.2 0.04 2.39 2.60 96 1008.8
20260501224305 60 23 10.4 15.6 0.04 2.39 2.60 96 1008.8
20260501224207 60 37 9.6 15.6 0.04 2.39 2.60 96 1008.8
20260501224105 60 20 8.7 15.6 0.04 2.39 2.60 96 1008.9
20260501224006 60 52 9.6 15.6 0.05 2.39 2.60 96 1008.9
20260501223906 60 17 8.7 15.6 0.05 2.39 2.60 96 1008.9
20260501223805 60 25 7.8 15.6 0.06 2.39 2.60 96 1008.9
20260501223705 60 30 7.8 15.6 0.06 2.39 2.60 96 1008.9
20260501223605 60 39 7.8 15.6 0.06 2.39 2.60 96 1008.9
20260501223505 60 39 8.7 15.6 0.07 2.39 2.60 96 1008.8
20260501223406 60 35 8.7 15.6 0.07 2.39 2.60 96 1008.8
20260501223305 60 32 8.7 14.8 0.08 2.39 2.60 96 1008.8
20260501223205 60 48 8.7 15.6 0.08 2.39 2.60 96 1008.6
20260501223104 60 32 7.8 15.6 0.08 2.39 2.60 96 1008.6
20260501223006 60 38 10.4 15.6 0.08 2.39 2.60 96 1008.7
20260501222907 60 32 10.4 15.6 0.09 2.39 2.60 96 1008.8
20260501222805 60 14 10.4 15.6 0.09 2.39 2.60 96 1008.8
20260501222704 61 38 10.4 15.6 0.09 2.39 2.60 96 1008.9
20260501222604 61 61 9.6 15.6 0.09 2.39 2.60 96 1009.0
20260501222505 61 49 10.4 15.6 0.09 2.39 2.60 96 1008.9
20260501222405 61 45 10.4 15.6 0.09 2.39 2.60 96 1008.9
20260501222306 61 28 10.4 15.6 0.09 2.39 2.60 96 1008.8
20260501222205 61 24 7.8 14.8 0.09 2.39 2.60 96 1008.8
20260501222104 61 45 6.1 14.8 0.09 2.39 2.60 96 1009.0
20260501222005 61 27 7.8 14.8 0.09 2.39 2.60 96 1009.0
20260501221905 61 24 8.7 15.6 0.09 2.39 2.60 96 1009.0
20260501221805 61 44 7.8 15.6 0.10 2.39 2.59 96 1009.1
20260501221705 61 27 6.1 15.6 0.09 2.39 2.59 96 1009.1
20260501221604 61 0 7.0 15.6 0.09 2.39 2.59 96 1009.3
20260501221505 61 16 7.8 15.6 0.09 2.39 2.59 96 1009.4
20260501221404 61 340 7.8 15.6 0.09 2.39 2.59 96 1009.4
20260501221304 61 21 7.8 15.6 0.09 2.39 2.59 96 1009.4
20260501221204 61 21 7.8 15.6 0.10 2.39 2.59 96 1009.4
20260501221105 61 18 7.8 15.6 0.10 2.39 2.59 96 1009.5
20260501221005 61 347 7.0 15.6 0.10 2.39 2.59 96 1009.4
20260501220904 61 21 7.0 14.8 0.10 2.39 2.59 96 1009.4
20260501220804 61 357 6.1 14.8 0.10 2.39 2.59 96 1009.4
20260501220704 61 350 7.0 14.8 0.11 2.39 2.59 96 1009.4
20260501220605 61 357 7.8 14.8 0.11 2.39 2.59 96 1009.3
20260501220505 61 6 5.2 13.0 0.11 2.39 2.59 96 1009.2
20260501220405 61 4 6.1 13.0 0.11 2.39 2.59 96 1009.2
20260501220304 61 7 6.1 13.0 0.11 2.39 2.59 96 1009.1
20260501220204 61 0 7.0 13.0 0.11 2.39 2.59 96 1009.0
20260501220104 61 20 7.0 13.0 0.11 2.39 2.59 96 1009.2
20260501220004 61 31 6.1 13.0 0.12 2.27 2.59 96 1009.4
20260501215905 61 32 6.1 13.0 0.12 2.27 2.59 96 1009.5
20260501215805 61 351 6.1 13.0 0.12 2.27 2.59 96 1009.4
20260501215704 61 357 7.8 13.0 0.13 2.27 2.59 97 1009.5
20260501215604 61 13 5.2 13.0 0.13 2.27 2.59 97 1009.4
20260501215505 61 0 4.3 12.2 0.13 2.27 2.59 96 1009.4
20260501215403 61 0 5.2 12.2 0.13 2.27 2.59 96 1009.4
20260501215305 61 351 7.0 12.2 0.14 2.27 2.58 96 1009.5
20260501215204 61 0 5.2 12.2 0.13 2.27 2.58 97 1009.5
20260501215105 61 7 4.3 7.8 0.14 2.27 2.58 97 1009.6
20260501215004 61 8 5.2 7.8 0.14 2.27 2.58 96 1009.6
20260501214905 61 39 5.2 8.7 0.15 2.27 2.58 96 1009.6
20260501214805 61 44 5.2 8.7 0.15 2.27 2.57 96 1009.6
20260501214703 61 32 4.3 8.7 0.15 2.27 2.57 96 1009.6
20260501214603 61 340 3.5 8.7 0.15 2.27 2.57 96 1009.6
20260501214507 61 17 4.3 8.7 0.15 2.27 2.56 96 1009.6
20260501214403 61 39 3.5 9.6 0.14 2.27 2.56 96 1009.6
20260501214304 61 0 3.5 9.6 0.15 2.27 2.56 96 1009.6
20260501214205 61 30 3.5 9.6 0.15 2.27 2.56 96 1009.6
20260501214105 61 41 4.3 9.6 0.16 2.27 2.55 96 1009.6
20260501214004 61 47 4.3 9.6 0.15 2.27 2.55 96 1009.6
20260501213904 61 18 3.5 9.6 0.16 2.27 2.54 96 1009.5
20260501213805 61 31 3.5 9.6 0.16 2.27 2.54 96 1009.4
20260501213704 61 34 4.3 9.6 0.16 2.27 2.54 96 1009.4
20260501213603 61 23 6.1 9.6 0.16 2.27 2.53 96 1009.4
20260501213503 61 17 6.1 9.6 0.16 2.27 2.53 96 1009.4
20260501213403 61 38 5.2 8.7 0.16 2.27 2.52 96 1009.5
20260501213303 61 34 3.5 6.1 0.15 2.27 2.52 96 1009.6
20260501213203 61 34 3.5 7.8 0.15 2.27 2.52 96 1009.6
20260501213104 61 17 3.5 9.6 0.16 2.27 2.52 96 1009.6
20260501213004 61 0 3.5 9.6 0.17 2.27 2.51 96 1009.6
20260501212904 61 16 3.5 9.6 0.16 2.27 2.51 96 1009.6
20260501212804 61 357 3.5 13.0 0.16 2.27 2.51 96 1009.6
20260501212703 61 21 3.5 13.0 0.16 2.27 2.51 96 1009.6
20260501212604 61 16 2.6 13.0 0.16 2.27 2.51 96 1009.5
20260501212504 61 14 2.6 13.0 0.16 2.27 2.51 96 1009.4
20260501212404 61 24 4.3 13.0 0.16 2.27 2.51 96 1009.3
20260501212306 61 8 6.1 13.0 0.16 2.27 2.51 96 1009.1
20260501212203 61 27 4.3 13.0 0.17 2.27 2.51 96 1009.0
20260501212104 61 47 4.3 13.0 0.17 2.27 2.51 96 1008.9
20260501212003 61 37 7.8 13.0 0.17 2.27 2.51 96 1008.7
20260501211903 61 48 7.8 13.0 0.17 2.27 2.50 96 1008.5
20260501211802 61 35 7.0 11.3 0.17 2.27 2.50 96 1008.4
20260501211703 61 44 7.0 11.3 0.17 2.27 2.50 96 1008.2
20260501211603 61 31 7.0 11.3 0.17 2.27 2.50 96 1008.2
20260501211503 61 34 7.8 12.2 0.17 2.27 2.50 96 1008.1
20260501211404 61 49 7.8 12.2 0.18 2.27 2.50 96 1008.1
20260501211302 61 30 7.0 12.2 0.18 2.27 2.49 96 1008.2
20260501211202 61 23 5.2 12.2 0.17 2.27 2.49 96 1008.2
20260501211103 61 37 5.2 13.9 0.17 2.27 2.49 96 1008.3
20260501211003 61 16 5.2 13.9 0.17 2.27 2.49 96 1008.3
20260501210903 61 28 4.3 13.9 0.17 2.27 2.48 96 1008.2
20260501210803 61 0 5.2 13.9 0.17 2.27 2.48 96 1008.1
20260501210703 61 8 7.0 16.5 0.16 2.27 2.48 96 1007.9
20260501210557 61 0 7.0 16.5 0.16 2.27 2.48 96 1007.8
20260501210457 61 17 7.0 16.5 0.16 2.27 2.48 96 1007.8
20260501210354 61 28 7.8 16.5 0.16 2.27 2.48 96 1007.8
20260501210254 61 14 7.8 16.5 0.16 2.27 2.48 96 1007.7
20260501210151 61 18 7.8 16.5 0.16 2.27 2.48 96 1007.7
20260501210051 61 357 7.0 16.5 0.16 2.27 2.47 96 1007.7
20260501205948 61 1 8.7 16.5 0.15 2.12 2.47 96 1007.6
20260501205847 61 27 12.2 16.5 0.15 2.12 2.47 96 1007.6
20260501205746 61 42 11.3 16.5 0.15 2.12 2.46 96 1007.5
20260501205644 61 38 10.4 15.6 0.14 2.12 2.46 96 1007.7
20260501205541 61 35 7.8 13.0 0.14 2.12 2.46 96 1007.8
20260501205441 61 55 7.0 12.2 0.14 2.12 2.45 96 1008.0
20260501205339 61 11 6.1 12.2 0.14 2.12 2.45 96 1008.2
20260501205239 61 32 6.1 12.2 0.14 2.12 2.45 96 1008.4
20260501205135 61 32 7.0 12.2 0.14 2.12 2.44 96 1008.5
20260501205034 61 37 5.2 12.2 0.13 2.12 2.44 96 1008.7
20260501204932 61 23 5.2 12.2 0.13 2.12 2.43 96 1008.8
20260501204831 61 30 6.1 12.2 0.12 2.12 2.43 96 1008.8
20260501204731 61 39 7.0 11.3 0.13 2.12 2.42 96 1008.6
20260501204630 61 17 7.0 11.3 0.12 2.12 2.42 96 1008.6
20260501204529 61 45 7.0 11.3 0.12 2.12 2.42 96 1008.6
20260501204428 61 42 7.0 11.3 0.13 2.12 2.41 96 1008.7
20260501204314 61 52 6.1 11.3 0.12 2.12 2.41 96 1008.8
20260501204212 61 25 4.3 10.4 0.13 2.12 2.41 97 1009.0
20260501204111 61 357 4.3 12.2 0.12 2.12 2.40 96 1009.0
20260501204011 61 7 5.2 12.2 0.13 2.12 2.40 96 1008.9
20260501203908 61 4 5.2 12.2 0.12 2.12 2.38 96 1008.8
20260501203802 61 13 7.0 12.2 0.11 2.12 2.38 96 1008.7
20260501203704 61 345 6.1 12.2 0.11 2.12 2.38 96 1008.7
20260501203605 61 1 5.2 12.2 0.11 2.12 2.37 96 1008.8
20260501203503 61 10 4.3 12.2 0.10 2.12 2.37 96 1008.9
20260501203402 61 35 5.2 12.2 0.10 2.12 2.37 96 1008.9
20260501203303 61 14 7.0 12.2 0.10 2.12 2.37 96 1008.9
20260501203205 61 35 7.0 12.2 0.10 2.12 2.36 96 1008.8
20260501203103 61 6 7.0 12.2 0.09 2.12 2.35 96 1008.7
20260501203002 62 42 4.3 10.4 0.09 2.12 2.35 96 1008.4
20260501202903 62 1 5.2 10.4 0.09 2.12 2.35 96 1008.2
20260501202803 62 1 5.2 10.4 0.09 2.12 2.35 96 1008.1
20260501202702 62 1 5.2 10.4 0.09 2.12 2.35 96 1008.2
20260501202532 62 1 5.2 10.4 0.09 2.12 2.35 96 1008.5
20260501202423 62 1 5.2 10.4 0.09 2.12 2.35 96 1008.6
20260501202320 62 20 5.2 10.4 0.09 2.12 2.35 96 1008.7
20260501202218 62 348 5.2 10.4 0.08 2.12 2.34 96 1008.8
20260501202118 62 341 4.3 10.4 0.08 2.12 2.34 96 1008.8
20260501202015 62 347 4.3 10.4 0.08 2.12 2.34 96 1008.7
20260501201914 62 357 5.2 10.4 0.08 2.12 2.33 96 1008.5
20260501201811 62 13 6.1 10.4 0.08 2.12 2.33 96 1008.4
20260501201712 62 24 5.2 10.4 0.07 2.12 2.33 96 1008.3
20260501201609 62 11 4.3 10.4 0.07 2.12 2.33 96 1008.3
20260501201509 62 24 5.2 10.4 0.07 2.12 2.33 96 1008.3
20260501201407 62 340 4.3 8.7 0.06 2.12 2.32 96 1008.2
20260501201304 62 0 3.5 8.7 0.06 2.12 2.32 96 1008.2
20260501201204 62 7 3.5 8.7 0.06 2.12 2.32 96 1008.1
20260501201104 62 4 5.2 8.7 0.06 2.12 2.32 96 1008.2
20260501201003 62 20 5.2 8.7 0.06 2.12 2.32 96 1008.2
20260501200901 62 37 5.2 8.7 0.06 2.12 2.32 96 1008.1
20260501200804 62 34 5.2 8.7 0.06 2.12 2.32 96 1008.1
20260501200705 62 30 5.2 8.7 0.06 2.12 2.32 96 1008.1
20260501200601 62 37 5.2 8.7 0.07 2.12 2.32 96 1008.1
20260501200502 62 44 6.1 10.4 0.07 2.12 2.32 96 1008.0
20260501200403 62 20 5.2 11.3 0.07 2.12 2.32 96 1008.0
20260501200300 62 7 4.3 11.3 0.07 2.12 2.32 96 1007.8
20260501200158 62 42 3.5 11.3 0.08 2.12 2.32 96 1007.7
20260501200058 62 1 4.3 11.3 0.09 2.12 2.32 96 1007.6
20260501195956 62 35 5.2 11.3 0.09 2.03 2.32 96 1007.7
20260501195852 62 41 4.3 11.3 0.10 2.03 2.32 96 1007.8
20260501195749 62 10 5.2 11.3 0.10 2.03 2.32 96 1007.8
20260501195647 62 27 6.1 11.3 0.10 2.03 2.32 96 1007.7
20260501195547 62 27 7.8 11.3 0.11 2.03 2.32 96 1007.6
20260501195443 62 16 7.8 11.3 0.11 2.03 2.31 96 1007.4
20260501195342 62 32 7.0 10.4 0.10 2.03 2.31 96 1007.4
20260501195240 62 52 6.1 10.4 0.11 2.03 2.31 96 1007.4
20260501195140 62 28 5.2 10.4 0.12 2.03 2.31 96 1007.4
20260501195038 62 7 6.1 10.4 0.12 2.03 2.31 96 1007.4
20260501194936 62 17 5.2 9.6 0.13 2.03 2.31 96 1007.4
20260501194834 62 24 4.3 9.6 0.13 2.03 2.30 96 1007.4
20260501194732 62 17 4.3 9.6 0.13 2.03 2.30 96 1007.3
20260501194631 62 24 6.1 9.6 0.14 2.03 2.30 96 1007.4
20260501194531 62 357 6.1 9.6 0.15 2.03 2.30 96 1007.4
20260501194431 62 4 5.2 9.6 0.14 2.03 2.29 96 1007.4
20260501194331 62 1 4.3 8.7 0.15 2.03 2.28 96 1007.5
20260501194231 62 7 4.3 6.1 0.15 2.03 2.28 96 1007.6
20260501194131 62 0 3.5 6.1 0.15 2.03 2.28 96 1007.7
20260501194033 62 25 2.6 6.1 0.14 2.03 2.27 96 1007.9
20260501193932 62 23 3.5 9.6 0.14 2.03 2.27 96 1007.9
20260501193831 62 34 3.5 9.6 0.15 2.03 2.27 97 1007.8
20260501193731 62 0 3.5 9.6 0.15 2.03 2.27 97 1007.8
20260501193632 62 357 4.3 9.6 0.15 2.03 2.27 96 1007.7
20260501193531 62 20 4.3 9.6 0.16 2.03 2.27 96 1007.6
20260501193424 62 357 4.3 9.6 0.16 2.03 2.27 96 1007.6
20260501193323 62 8 3.5 9.6 0.16 2.03 2.27 96 1007.7
20260501193220 62 54 4.3 9.6 0.16 2.03 2.27 96 1007.5
20260501193120 62 72 5.2 9.6 0.17 2.03 2.27 96 1007.4
20260501193017 62 52 5.2 9.6 0.17 2.03 2.26 96 1007.4
20260501192915 62 34 5.2 7.8 0.18 2.03 2.26 96 1007.4
20260501192814 62 49 3.5 7.8 0.19 2.03 2.26 96 1007.6
20260501192709 62 25 2.6 7.8 0.20 2.03 2.26 96 1007.8
20260501192609 62 20 3.5 7.8 0.21 2.03 2.26 96 1007.8
20260501192507 62 20 5.2 7.8 0.22 2.03 2.26 96 1007.7
20260501192405 62 27 5.2 6.1 0.25 2.03 2.26 97 1007.6
20260501192306 62 21 3.5 6.1 0.26 2.03 2.26 96 1007.6
20260501192203 62 7 2.6 6.1 0.28 2.03 2.26 96 1007.6
20260501192103 62 16 3.5 6.1 0.29 2.03 2.26 96 1007.7
20260501192004 62 3 3.5 6.1 0.30 2.03 2.26 97 1007.8
20260501191902 62 0 2.6 6.1 0.31 2.03 2.26 96 1007.9
20260501191802 62 353 2.6 6.1 0.31 2.03 2.26 96 1007.9
20260501191703 62 357 3.5 6.1 0.32 2.03 2.26 96 1008.0
20260501191602 62 330 3.5 6.1 0.33 2.03 2.26 96 1008.2
20260501191502 62 329 4.3 6.1 0.33 2.03 2.26 96 1008.2
20260501191403 62 333 3.5 7.8 0.34 2.03 2.26 97 1008.1
20260501191303 62 350 2.6 7.8 0.34 2.03 2.26 97 1008.0
20260501191202 62 13 1.7 7.8 0.34 2.03 2.26 97 1007.7
20260501191102 62 11 3.5 7.8 0.35 2.03 2.26 97 1007.5
20260501191003 62 21 4.3 7.8 0.35 2.03 2.26 97 1007.4
20260501190903 62 13 4.3 7.8 0.36 2.03 2.26 96 1007.4
20260501190803 62 31 4.3 7.8 0.37 2.03 2.26 96 1007.5
20260501190702 62 34 4.3 9.6 0.38 2.03 2.25 96 1007.5
20260501190602 62 48 5.2 9.6 0.39 2.03 2.25 96 1007.7
20260501190502 62 52 4.3 9.6 0.39 2.03 2.25 96 1007.8
20260501190402 62 30 2.6 9.6 0.39 2.03 2.25 96 1007.8
20260501190302 62 45 3.5 9.6 0.40 2.03 2.24 96 1007.9
20260501190203 62 48 3.5 9.6 0.40 2.03 2.23 96 1008.0
20260501190003 62 49 3.5 10.4 0.41 1.62 2.22 96 1008.0
20260501185902 62 41 5.2 10.4 0.43 1.62 2.22 96 1008.1
20260501185802 62 72 3.5 10.4 0.46 1.62 2.22 96 1008.1
20260501185703 62 32 2.6 10.4 0.48 1.62 2.21 96 1008.1
20260501185602 62 42 3.5 10.4 0.48 1.62 2.21 96 1007.9
20260501185502 62 27 5.2 10.4 0.50 1.62 2.21 96 1007.7
20260501185402 62 52 7.0 10.4 0.11 1.62 2.20 96 1007.5
20260501185305 62 23 7.8 10.4 0.11 1.62 2.20 96 1007.5
20260501185202 62 38 5.2 10.4 0.11 1.62 2.19 96 1007.7
20260501185102 62 39 3.5 5.2 0.11 1.62 2.19 96 1007.9
20260501185004 62 35 4.3 5.2 0.11 1.62 2.18 96 1008.1
20260501184902 62 55 3.5 6.1 0.11 1.62 2.17 96 1008.2
20260501184803 62 21 2.6 8.7 0.11 1.62 2.16 96 1008.3
20260501184702 62 23 0.9 9.6 0.11 1.62 2.15 96 1008.3
20260501184602 62 45 0.9 9.6 0.11 1.62 2.15 96 1008.4
20260501184504 62 45 1.7 12.2 0.11 1.62 2.14 96 1008.4
20260501184402 62 141 1.7 13.9 0.11 1.62 2.14 96 1008.3
20260501184303 62 137 1.7 13.9 0.11 1.62 2.13 96 1008.2
20260501184202 62 72 1.7 16.5 0.11 1.62 2.13 96 1007.9
20260501184101 62 72 3.5 16.5 0.11 1.62 2.13 96 1007.8
20260501184001 62 44 4.3 16.5 0.11 1.62 2.12 96 1007.6
20260501183900 62 357 4.3 16.5 0.11 1.62 2.12 96 1007.4
20260501183801 61 71 5.2 16.5 0.11 1.62 2.12 96 1007.1
20260501183659 62 68 7.0 16.5 0.11 1.62 2.11 96 1006.9
20260501183559 62 96 9.6 16.5 0.11 1.62 2.11 96 1006.6
20260501183459 62 71 10.4 16.5 0.11 1.62 2.11 96 1006.4
20260501183401 62 75 10.4 16.5 0.11 1.62 2.11 96 1006.2
20260501183300 62 85 10.4 16.5 0.11 1.62 2.10 96 1006.2
20260501183200 62 80 11.3 15.6 0.11 1.62 2.10 96 1006.3
20260501183100 62 68 9.6 14.8 0.11 1.62 2.09 96 1006.5
20260501182959 62 48 7.0 13.9 0.11 1.62 2.08 96 1006.7
20260501182859 62 65 7.8 13.9 0.11 1.62 2.07 96 1006.7
20260501182800 62 75 8.7 13.9 0.11 1.62 2.06 96 1006.6
20260501182659 62 71 8.7 13.9 0.11 1.62 2.05 96 1006.5
20260501182559 62 59 7.8 13.9 0.11 1.62 2.03 96 1006.4
20260501182501 62 63 7.8 13.9 0.11 1.62 2.01 96 1006.3
20260501182400 62 82 9.6 13.9 0.11 1.62 2.00 96 1006.4
20260501182259 62 45 9.6 13.9 0.11 1.62 1.98 96 1006.5
20260501182201 62 72 8.7 13.0 0.11 1.62 1.97 96 1006.4
20260501182100 62 44 7.8 13.0 0.11 1.62 1.96 96 1006.5
20260501182000 62 104 9.6 13.0 0.11 1.62 1.95 96 1006.6
20260501181859 62 75 8.7 13.0 0.11 1.62 1.95 96 1006.8
20260501181759 62 52 7.8 11.3 0.11 1.62 1.94 96 1007.0
20260501181700 62 80 7.0 10.4 0.11 1.62 1.93 96 1007.3
20260501181559 62 54 6.1 10.4 0.11 1.62 1.93 96 1007.5
20260501181500 62 48 7.0 10.4 0.11 1.62 1.92 96 1007.6
20260501181401 62 31 6.1 10.4 0.11 1.62 1.92 96 1007.8
20260501181300 62 41 5.2 10.4 0.11 1.62 1.92 96 1007.9
20260501181159 62 18 6.1 13.0 0.11 1.62 1.91 96 1007.8
20260501181059 62 31 6.1 13.0 0.11 1.62 1.90 96 1007.9
20260501181001 62 21 5.2 13.0 0.11 1.62 1.90 96 1007.8
20260501180859 62 34 5.2 13.0 0.11 1.62 1.89 96 1007.8
20260501180800 62 28 5.2 13.0 0.11 1.62 1.88 96 1007.8
20260501180659 62 24 5.2 13.0 0.11 1.62 1.86 96 1007.8
20260501180559 62 56 5.2 13.9 0.11 1.62 1.86 96 1007.8
20260501180501 62 52 7.0 13.9 0.11 1.62 1.86 96 1007.7
20260501180358 62 39 7.8 13.9 0.11 1.62 1.85 96 1007.7
20260501180302 62 6 8.7 13.9 0.11 1.62 1.84 96 1007.8
20260501180158 62 31 7.8 13.9 0.11 1.62 1.83 96 1007.9
20260501180100 62 32 7.0 13.9 0.08 1.59 1.79 96 1008.0
20260501180001 62 13 8.7 13.9 0.00 1.51 1.79 96 1008.2
20260501175858 62 41 7.8 13.9 0.00 1.51 1.76 96 1008.2
20260501175758 62 39 8.7 13.9 0.00 1.51 1.74 96 1008.3
20260501175659 62 49 9.6 13.0 0.00 1.51 1.73 96 1008.2
20260501175601 62 47 9.6 8.7 0.00 1.51 1.71 96 1008.4
20260501175458 0 61 8.7 0.0 0.00 0.00 0.00 1008.4
20260501175358 0 0.0 0.0 0.00 0.00 0.00 1008.5
20260501175259 0 0.0 0.0 0.00 0.00 0.00 1008.5
20260501174831 62 0 4.3 12.2 0.07 1.71 1.77 96 1008.5
20260501174733 62 0 3.5 12.2 0.08 1.71 1.76 96 1008.5
20260501174631 62 27 3.5 12.2 0.07 1.71 1.76 96 1008.5
20260501174532 62 23 4.3 12.2 0.07 1.71 1.76 96 1008.6
20260501174433 62 32 4.3 12.2 0.07 1.71 1.76 96 1008.6
20260501174332 62 23 4.3 12.2 0.06 1.71 1.75 96 1008.6
20260501174231 62 35 6.1 12.2 0.06 1.71 1.75 96 1008.6
20260501174131 62 16 5.2 13.0 0.06 1.71 1.74 96 1008.6
20260501174031 62 6 3.5 13.0 0.06 1.71 1.74 96 1008.6
20260501173931 62 10 3.5 13.0 0.06 1.71 1.74 96 1008.7
20260501173832 62 7 3.5 13.0 0.05 1.71 1.73 96 1008.6
20260501173733 62 30 3.5 13.0 0.05 1.71 1.73 96 1008.6
20260501173632 62 34 5.2 13.0 0.05 1.71 1.73 96 1008.5
20260501173524 62 21 6.1 13.0 0.05 1.71 1.73 96 1008.5
20260501173420 62 25 7.0 13.0 0.05 1.71 1.72 96 1008.5
20260501173315 62 32 7.0 13.0 0.05 1.71 1.72 96 1008.4
20260501173214 62 37 7.8 13.0 0.06 1.71 1.72 96 1008.5
20260501173113 62 24 7.8 13.0 0.07 1.71 1.72 96 1008.6
20260501173009 62 354 7.8 13.0 0.08 1.71 1.72 96 1008.6
20260501172907 62 31 7.8 13.0 0.09 1.71 1.72 96 1008.5
20260501172805 62 27 7.0 12.2 0.10 1.71 1.72 96 1008.6
20260501172703 62 27 6.1 12.2 0.10 1.71 1.72 96 1008.5